[[{"header":{"parameterUnit":"m.s-1","parameterCategory":1,"la1":30.2991,"la2":30.254,"lo1":-89.0895,"lo2":-89.0444,"dy":0.0017,"dx":0.0017,"nx":28,"ny":28,"refTime":"2025-04-19T21:00:00:Z","depth":0,"parameterNumber":2,"parameterNumberName":"U-component_of_WINDS"},"data":[0,0,0,0,0,0,0,0,0,0,0,0,0,0,0,0,0,0,0,0,0,0,0,0,0,0,0,0,0,0,0,0,0,0,0,0,0,0,0,0,0,0,0,0,0,0,0,0,0,0,0,0,0,0,0,0,0,0,-2.4756,-2.4757,0,-2.4793,-2.4793,-2.4794,-2.4794,-2.4794,-2.4793,-2.4793,-2.4832,-2.4834,-2.4835,0,0,0,0,0,0,0,0,0,0,0,0,0,-2.469,-2.4691,-2.4756,-2.4757,-2.4757,-2.4793,-2.4793,-2.4794,-2.4794,-2.4794,-2.4793,-2.4793,-2.4832,-2.4833,-2.4835,0,0,0,0,0,0,0,0,0,0,0,0,0,-2.4722,-2.4692,-2.4756,-2.4762,-2.4762,-2.4793,-2.4793,-2.4794,-2.4794,-2.4794,-2.4793,-2.4792,-2.4831,-2.4833,-2.4835,-2.4863,0,0,-2.4842,-2.4843,0,0,0,0,0,0,0,0,-2.472,-2.4724,-2.476,-2.4761,-2.4762,-2.4788,-2.4784,-2.4817,-2.4795,-2.4782,-2.4793,-2.4792,-2.4818,-2.4821,-2.483,-2.4865,-2.4867,-2.4842,-2.4844,-2.4845,-2.4845,0,0,0,0,0,0,0,-2.4718,-2.4723,-2.4771,-2.4761,-2.4762,-2.4763,-2.4767,-2.4791,-2.4804,-2.4783,-2.4783,-2.4788,-2.4819,-2.4828,-2.4831,-2.4867,-2.4842,-2.4844,-2.4846,-2.4847,-2.4929,-2.493,0,0,0,0,0,0,-2.4714,-2.4721,-2.477,-2.4772,-2.4739,-2.4765,-2.4769,-2.4781,-2.4804,-2.4806,-2.4788,-2.4788,-2.4824,-2.4828,-2.4832,-2.4866,-2.4845,-2.4847,-2.4848,-2.4928,-2.4929,-2.493,0,0,0,0,0,0,-2.4713,-2.4719,-2.4768,-2.4747,-2.4753,-2.4767,-2.478,-2.4782,-2.4791,-2.4807,-2.481,-2.4795,-2.4824,-2.4829,-2.4856,-2.4868,-2.4848,-2.485,-2.4927,-2.4928,-2.493,-2.4935,0,0,0,0,0,0,-2.4711,-2.4718,-2.4728,-2.4747,-2.4754,-2.479,-2.478,-2.4783,-2.4794,-2.4794,-2.4814,-2.4817,-2.4824,-2.4852,-2.4858,-2.4871,-2.4852,-2.4926,-2.4928,-2.4929,-2.4934,-2.4936,-2.4938,0,0,0,0,0,-2.4709,-2.4728,-2.4728,-2.4734,-2.4766,-2.479,-2.4795,-2.4802,-2.4795,-2.4806,-2.4817,-2.4816,-2.4866,-2.4855,-2.4861,-2.4875,-2.4925,-2.4927,-2.4929,-2.4933,-2.4936,-2.4938,0,0,0,0,0,0,-2.471,-2.473,-2.4731,-2.4757,-2.4772,-2.479,-2.4803,-2.4805,-2.4822,-2.4821,-2.483,-2.4835,-2.4861,-2.4871,-2.4858,-2.4904,-2.4895,-2.4898,-2.4896,-2.4899,-2.4901,-2.4897,-2.4853,0,0,0,0,0,-2.4714,-2.473,-2.4748,-2.4769,-2.4777,-2.4789,-2.48,-2.4804,-2.482,-2.4827,-2.484,-2.4856,-2.4876,-2.4888,-2.4907,-2.4936,-2.4941,-2.4949,-2.4951,-2.4953,-2.4955,-2.4972,-2.4976,-2.4936,-2.4936,-2.4936,0,0,-2.472,-2.4734,-2.4744,-2.477,-2.4782,-2.48,-2.4794,-2.4814,-2.4828,-2.483,-2.4855,-2.4866,-2.4885,-2.4913,-2.4926,-2.4922,-2.4968,-2.4955,-2.4957,-2.4958,-2.4975,-2.4978,-2.4982,-2.4938,-2.4937,-2.4937,0,0,-2.4742,-2.4754,-2.4773,-2.4786,-2.4804,-2.4813,-2.4818,-2.4837,-2.4843,-2.4869,-2.4872,-2.489,-2.4923,-2.4937,-2.4948,-2.4978,-2.4978,-2.4984,-2.4996,-2.5012,-2.5015,-2.5018,-2.5029,-2.5032,-2.4987,-2.4987,-2.4987,0,-2.4748,-2.4775,-2.4783,-2.4802,-2.4814,-2.4818,-2.4838,-2.485,-2.4874,-2.4883,-2.4878,-2.4921,-2.4934,-2.4966,-2.4974,-2.4983,-2.4989,-2.4981,-2.5014,-2.5017,-2.502,-2.503,-2.5034,-2.4987,-2.4987,-2.4987,-2.4987,0,-2.4782,-2.4801,-2.4814,-2.4837,-2.4851,-2.4871,-2.4883,-2.4896,-2.49,-2.491,-2.4937,-2.4953,-2.4976,-2.4984,-2.4989,-2.5017,-2.5014,-2.5012,-2.5003,-2.5024,-2.5034,-2.5038,-2.4988,-2.4988,-2.4988,-2.4988,0,0,-2.4803,-2.4831,-2.4836,-2.4847,-2.4869,-2.4884,-2.4905,-2.4927,-2.4938,-2.4956,-2.4974,-2.5004,-2.5002,-2.5015,-2.5022,-2.5036,-2.5059,-2.5032,-2.5033,-2.5036,-2.5093,-2.5093,-2.5097,-2.5061,-2.5062,-2.5062,-2.5091,0,-2.4826,-2.4862,-2.4871,-2.4902,-2.492,-2.4925,-2.4944,-2.496,-2.497,-2.4988,-2.5,-2.5021,-2.5017,-2.5025,-2.504,-2.5053,-2.507,-2.5052,-2.5078,-2.5079,-2.5071,-2.5102,-2.5103,-2.5128,-2.5095,-2.5095,-2.5096,0,-2.4858,-2.4875,-2.4908,-2.4929,-2.4937,-2.4953,-2.4975,-2.4992,-2.5011,-2.5018,-2.5033,-2.5039,-2.5063,-2.5054,-2.5088,-2.5074,-2.5087,-2.5095,-2.5096,-2.5098,-2.5087,-2.5104,-2.5137,-2.514,-2.5102,-2.5101,-2.5101,0,-2.4869,-2.4902,-2.4925,-2.4935,-2.496,-2.4971,-2.4982,-2.5001,-2.5014,-2.5034,-2.5043,-2.5065,-2.5077,-2.5096,-2.5108,-2.51,-2.514,-2.5133,-2.5147,-2.5146,-2.5153,-2.5152,-2.5187,-2.5163,-2.5163,-2.5163,-2.5163,0,-2.4893,-2.4913,-2.4931,-2.4945,-2.4968,-2.498,-2.5002,-2.5014,-2.5031,-2.5049,-2.5056,-2.5073,-2.5088,-2.5108,-2.5118,-2.5144,-2.515,-2.5157,-2.5159,-2.5155,-2.5154,-2.5162,-2.516,-2.5164,-2.5164,-2.5164,-2.5163,0,-2.4909,-2.4922,-2.4948,-2.497,-2.4976,-2.4992,-2.5011,-2.5027,-2.5038,-2.5061,-2.5067,-2.5085,-2.5109,-2.5123,-2.5153,-2.516,-2.5189,-2.5191,-2.5182,-2.5183,-2.5196,-2.5194,-2.5236,-2.5242,-2.5215,-2.5215,-2.5215,0,-2.4923,-2.4938,-2.4962,-2.4974,-2.4985,-2.5005,-2.5018,-2.5031,-2.5045,-2.507,-2.5082,-2.5106,-2.5126,-2.5164,-2.518,-2.5204,-2.5206,-2.5219,-2.521,-2.5206,-2.5206,-2.5204,-2.5206,-2.522,-2.5221,-2.5221,-2.5221,0,-2.4946,-2.4952,-2.497,-2.4992,-2.5008,-2.5025,-2.5043,-2.5053,-2.5069,-2.5085,-2.5109,-2.5124,-2.5155,-2.5179,-2.5205,-2.5218,-2.5222,-2.5224,-2.5229,-2.5224,-2.5218,-2.5221,-2.5185,-2.5223,-2.5223,-2.5222,-2.5222,-2.5222,-2.4961,-2.4975,-2.4994,-2.5015,-2.503,-2.5046,-2.5062,-2.5075,-2.5095,-2.5121,-2.5128,-2.5153,-2.5175,-2.5209,-2.5223,-2.5244,-2.5242,-2.5248,-2.525,-2.5251,-2.5251,-2.5216,-2.5249,-2.5249,-2.5249,-2.5249,-2.5249,0,-2.4984,-2.4997,-2.5016,-2.504,-2.5057,-2.506,-2.5081,-2.5095,-2.5116,-2.5136,-2.5155,-2.5183,-2.5207,-2.5227,-2.5252,-2.5265,-2.5268,-2.5271,-2.5269,-2.5273,-2.5251,-2.5245,-2.5268,-2.5268,-2.5268,-2.5268,-2.5268,-2.5268,-2.4998,-2.5022,-2.503,-2.5062,-2.5076,-2.5099,-2.5111,-2.5127,-2.5142,-2.5173,-2.5193,-2.5205,-2.5225,-2.5252,-2.5275,-2.528,-2.5289,-2.5291,-2.5297,-2.5276,-2.5274,-2.5272,-2.5266,-2.5293,-2.5293,-2.5316,-2.5316,-2.5317]},{"header":{"parameterUnit":"m.s-1","parameterCategory":1,"la1":30.2991,"la2":30.254,"lo1":-89.0895,"lo2":-89.0444,"dy":0.0017,"dx":0.0017,"nx":28,"ny":28,"refTime":"2025-04-19T21:00:00:Z","depth":0,"parameterNumber":3,"parameterNumberName":"V-component_of_WINDS"},"data":[0,0,0,0,0,0,0,0,0,0,0,0,0,0,0,0,0,0,0,0,0,0,0,0,0,0,0,0,0,0,0,0,0,0,0,0,0,0,0,0,0,0,0,0,0,0,0,0,0,0,0,0,0,0,0,0,0,0,3.4999,3.4999,0,3.4987,3.4987,3.4987,3.5021,3.5022,3.5023,3.5024,3.5008,3.5007,3.5006,0,0,0,0,0,0,0,0,0,0,0,0,0,3.5049,3.5048,3.4999,3.4999,3.4999,3.4987,3.4987,3.4987,3.5021,3.5022,3.5024,3.5025,3.5009,3.5007,3.5006,0,0,0,0,0,0,0,0,0,0,0,0,0,3.5031,3.5048,3.4999,3.5014,3.5016,3.4987,3.4987,3.4987,3.5021,3.5022,3.5024,3.5025,3.5009,3.5007,3.5005,3.496,0,0,3.4999,3.4998,0,0,0,0,0,0,0,0,3.5032,3.5029,3.5012,3.5013,3.5015,3.5007,3.4999,3.4977,3.502,3.5019,3.5024,3.5026,3.5006,3.5005,3.4999,3.4959,3.4958,3.4999,3.4997,3.4996,3.4996,0,0,0,0,0,0,0,3.5033,3.503,3.4994,3.5012,3.5013,3.5021,3.5021,3.4995,3.5003,3.5019,3.5021,3.502,3.5007,3.5001,3.4999,3.4958,3.4999,3.4997,3.4995,3.4995,3.4883,3.4881,0,0,0,0,0,0,3.5033,3.5031,3.4994,3.4994,3.5028,3.5019,3.5018,3.5008,3.5004,3.5005,3.5018,3.5021,3.5004,3.5001,3.4998,3.4946,3.4996,3.4994,3.4993,3.4885,3.4883,3.4881,0,0,0,0,0,0,3.5034,3.503,3.4995,3.5013,3.5009,3.5017,3.5005,3.5007,3.5,3.5004,3.5005,3.501,3.5005,3.5001,3.497,3.4946,3.4993,3.4991,3.4887,3.4884,3.4882,3.4841,0,0,0,0,0,0,3.5035,3.503,3.5013,3.5012,3.5008,3.4967,3.5003,3.5005,3.4997,3.5001,3.4996,3.4997,3.5006,3.4973,3.4968,3.4944,3.499,3.4889,3.4885,3.4882,3.4845,3.4838,3.4832,0,0,0,0,0,3.5037,3.5,3.5012,3.5007,3.4987,3.4966,3.4963,3.4975,3.4995,3.4978,3.498,3.4997,3.495,3.4969,3.4964,3.4939,3.489,3.4886,3.4883,3.4848,3.4839,3.4832,0,0,0,0,0,0,3.4996,3.5001,3.5013,3.4975,3.497,3.4972,3.495,3.4965,3.4953,3.4957,3.4971,3.497,3.4936,3.4934,3.4956,3.4896,3.4923,3.4918,3.4899,3.489,3.4884,3.4885,3.4988,0,0,0,0,0,3.4983,3.4966,3.497,3.4937,3.4934,3.4942,3.4933,3.4943,3.4938,3.4935,3.4935,3.4928,3.4913,3.4901,3.4886,3.4845,3.4845,3.4825,3.4819,3.4813,3.4809,3.4789,3.478,3.4868,3.4868,3.4868,0,0,3.4954,3.4955,3.4943,3.4928,3.4925,3.4907,3.494,3.4919,3.4905,3.4931,3.4903,3.4903,3.4896,3.486,3.4844,3.4858,3.4785,3.4808,3.4804,3.4803,3.4784,3.4775,3.4768,3.4866,3.4866,3.4867,0,0,3.4894,3.4893,3.4866,3.4863,3.4859,3.4865,3.4859,3.4859,3.486,3.4832,3.4852,3.4836,3.4807,3.4802,3.4796,3.4737,3.4752,3.4732,3.4697,3.4677,3.467,3.4664,3.4645,3.4637,3.4727,3.4727,3.4727,0,3.486,3.4834,3.4849,3.4828,3.4821,3.4846,3.4819,3.4815,3.4805,3.48,3.4816,3.4782,3.4779,3.4744,3.473,3.4723,3.4717,3.4732,3.467,3.4664,3.4659,3.464,3.4633,3.4724,3.4725,3.4725,3.4725,0,3.4792,3.4774,3.4753,3.4746,3.4736,3.4712,3.4723,3.4712,3.4723,3.4728,3.47,3.4698,3.4684,3.4676,3.4686,3.4642,3.4651,3.4668,3.4696,3.4648,3.4631,3.4623,3.4721,3.4722,3.4723,3.4723,0,0,3.4704,3.4708,3.47,3.4698,3.4697,3.4682,3.4659,3.4648,3.4639,3.4631,3.4613,3.4589,3.4606,3.4599,3.4609,3.4591,3.4547,3.4611,3.4611,3.46,3.45,3.4488,3.4479,3.4557,3.4556,3.4555,3.4501,0,3.4647,3.4609,3.4623,3.4584,3.4568,3.4593,3.4573,3.457,3.4574,3.4561,3.4565,3.4549,3.4572,3.4568,3.4552,3.4556,3.4527,3.4559,3.454,3.4539,3.4542,3.447,3.4456,3.4405,3.4494,3.4493,3.4492,0,3.4573,3.4566,3.4526,3.453,3.4524,3.4506,3.4497,3.4484,3.4481,3.4486,3.4479,3.4494,3.4471,3.4499,3.4469,3.4491,3.4484,3.4485,3.4483,3.4482,3.4513,3.4467,3.4389,3.4382,3.4481,3.4482,3.4483,0,3.4515,3.4495,3.4469,3.4467,3.447,3.4457,3.4457,3.4456,3.4449,3.4441,3.4437,3.4426,3.442,3.4411,3.4422,3.4441,3.4391,3.4419,3.4394,3.4394,3.4382,3.4383,3.4303,3.4377,3.4377,3.4377,3.4377,0,3.4449,3.4424,3.4444,3.4428,3.4401,3.4417,3.439,3.4393,3.4392,3.4377,3.4397,3.4382,3.4397,3.4384,3.4392,3.4367,3.4364,3.4367,3.437,3.4366,3.4366,3.4362,3.4366,3.4375,3.4375,3.4376,3.4376,0,3.438,3.4392,3.4365,3.4371,3.4372,3.4352,3.4357,3.4342,3.4349,3.433,3.4326,3.4336,3.4322,3.4332,3.4317,3.4323,3.429,3.4297,3.4292,3.4294,3.4269,3.4272,3.4184,3.4174,3.4253,3.4252,3.4252,0,3.4337,3.4319,3.4324,3.4316,3.4316,3.4303,3.4296,3.4312,3.4304,3.4301,3.4287,3.4275,3.4266,3.4242,3.4248,3.4237,3.4245,3.4215,3.4243,3.424,3.4245,3.4247,3.4246,3.4209,3.4208,3.4207,3.4206,0,3.4261,3.4269,3.4259,3.4252,3.4245,3.4239,3.4235,3.4228,3.4244,3.4234,3.4221,3.4214,3.4201,3.4189,3.418,3.418,3.4196,3.4198,3.4192,3.4188,3.4186,3.4188,3.4277,3.42,3.42,3.4201,3.4201,3.4201,3.4205,3.419,3.4192,3.4182,3.4181,3.4178,3.4165,3.4171,3.4161,3.4152,3.4162,3.4146,3.4145,3.4136,3.4134,3.4122,3.4134,3.4125,3.4123,3.412,3.4118,3.4187,3.412,3.412,3.4121,3.4121,3.4121,0,3.4131,3.4134,3.4124,3.4119,3.4111,3.4129,3.4126,3.4118,3.4104,3.4102,3.4094,3.408,3.4069,3.4074,3.4065,3.4054,3.4061,3.4051,3.4052,3.4052,3.4106,3.4113,3.4045,3.4045,3.4045,3.4045,3.4045,3.4045,3.4091,3.4069,3.4077,3.4054,3.4057,3.4043,3.4041,3.4038,3.4037,3.402,3.4012,3.4016,3.4018,3.4009,3.4,3.4002,3.3998,3.3985,3.399,3.404,3.4048,3.4055,3.4062,3.3984,3.3984,3.3937,3.3936,3.3936]}]]